Gold Country Challenge - Loft Flight

Station: Loft Fly - T Race

Distance: 1 Miles    

Release: 01-Aug-2022 06:30

Weather Release: Cloudy    Arrival: Cloudy

Wind at Release:     Wind at Arrival:

Temp at Release: °    Temp at Arrival: °

Lofts: 81

Birds: 338

Clocked: 337

Birds going on respiratory treatment today for a week.
Drops Pos Breeder Pigeon Name Color Sex Ent Arrival Speed To Win Elg Pd
1 Portland Loft - OR 4102-AU22-PNW BB H 1 07:24:33.30 32.261 00:00:00 Yes
2 Frank Gonsalves - CA 0703-AU22-AA BC H 1 07:24:39.50 32.200 00:00:06 Yes
3 Endo/Wong/Kojiro - HI 0452-IF22-PBM BC H 1 07:24:46.50 32.131 00:00:13 Yes
4 Nanez Family Loft - WI 7029-AU22-NFL BB H 1 07:25:53.30 31.491 00:01:20 Yes
5 Sparks Trio Syn - NV 2305-AU22-RENO Kathy BC H 1 07:26:05.40 31.378 00:01:32 Yes
6 Guinto-Hedderson - CA 2601-AU22-FSC 1986-888 1 BC H 1 07:27:12.00 30.769 00:02:39 Yes
7 Portland Loft - OR 4196-AU22-PNW BB H 2 07:30:04.60 29.296 00:05:31 Yes
8 Christopher Loft - UT 0035-AU22-GS PIED H 1 07:30:06.10 29.284 00:05:33 Yes
9 Sierra Ranch - CA 0120-AU22-SR Jonny be good🏆 BB H 1 07:30:31.90 29.076 00:05:59 Yes
10 House Of Paine - CA 0704-AU22-HOP HOP241xHOP240 BB H 1 07:30:52.70 28.910 00:06:19 Yes
11 Skylinerpl.Com - UT 0311-AU22-UVI Troy/Ellie Jane BBWF H 1 07:39:24.40 25.358 00:14:51 Yes
12 Genesis Syndicate Loft - AZ 0656-AU22-GENS BC H 1 07:39:36.30 25.286 00:15:03 Yes
13 RCManaois Family Loft - NV 0008-AU22-RCML BBWF H 1 07:40:25.20 24.993 00:15:52 Yes
14 Kereru Whare - CA 0046-AU22-BISH BB H 1 07:40:52.60 24.832 00:16:19 Yes
15 Kereru Whare - CA 0057-AU22-BISH MLY H 2 07:40:59.40 24.792 00:16:26 Yes
16 Fleet Washington - DC 2249-AU22-FLTW BC H 1 07:42:21.10 24.326 00:17:48 Yes
17 Funny Farm Loft - CA 6059-AU22-ARC 4428/2850 DC H 1 07:42:22.00 24.321 00:17:49 Yes
18 Denis Eastwood - CA 39918-AU22-JEDD BB H 1 07:42:32.50 24.262 00:17:59 Yes
19 Sugaronni Loft - CA 19816-AU22-FOYS BB H 1 07:42:37.10 24.236 00:18:04 Yes
20 BIRDHIGH RANCH - CA 8801-AU22-JEDD BB H 1 07:42:40.40 24.218 00:18:07 Yes
21 John V Partridge - CA 1004-AU22-PASO My Brothers 4747-400-1867 BC H 1 07:42:41.10 24.214 00:18:08 Yes
22 Scm Lofts - CA 19537-AU22-JEDD BB H 1 07:43:02.60 24.095 00:18:29 Yes
23 Sparks Trio Syn - NV 2325-AU22-RENO Karla BC H 2 07:43:33.50 23.927 00:19:00 Yes
24 Tim Brandon - CA 22100-AU22-SNV BB H 1 07:43:35.60 23.915 00:19:02 Yes
25 Endo/Wong/Kojiro - HI 0007-AU22-PONO BB H 2 07:44:02.20 23.772 00:19:29 Yes
26 Dan & Greg Coury - AZ 2031-AU22-PEGA BC C 1 07:44:08.70 23.737 00:19:35 Yes
27 Golden Knights Loft - CA 17445-AU22-ARPU BB H 1 07:44:21.50 23.669 00:19:48 Yes
28 Genesis Syndicate Loft - AZ 0666-AU22-GENS BC H 2 07:44:28.90 23.630 00:19:56 Yes
29 House Of Paine - CA 0700-AU22-HOP GSF1897xGSF179 BB H 2 07:44:33.40 23.606 00:20:00 Yes
30 Genesis Syndicate Loft - AZ 0672-AU22-GENS BC H 3 07:44:35.40 23.596 00:20:02 Yes
31 B & N Lofts - CA 30401-AU22-JEDD Kelsey BC H 1 07:44:46.00 23.540 00:20:13 Yes
32 Kereru Whare - CA 0027-AU22-BISH MLY H 3 07:45:05.60 23.438 00:20:32 Yes
33 Darryl Coston - CA 1374-AU22-BAK BB H 1 07:45:29.00 23.316 00:20:56 Yes
34 T M Lofts - CA 2805-AU22-FOYS Bella BC H 1 07:45:56.30 23.177 00:21:23 Yes
35 B S Lofts - CA 0203-AU22-BSL 13330&31 BB H 1 07:45:58.20 23.167 00:21:25 Yes
36 John & Omelio - NM 50921-AU22-ARPU BC H 1 07:46:13.50 23.090 00:21:40 Yes
37 Overtime Loft - CA 19164-AU22-JEDD BB H 1 07:46:19.90 23.057 00:21:47 Yes
38 Racing Pigeon Mall - WA 0265-AU22-RPM BLK H 1 07:46:31.30 23.000 00:21:58 Yes
39 Aimhigh Loft - CA 0024-AU22-CHIM Just Wink It BB H 1 07:46:31.60 22.999 00:21:58 Yes
40 Skylinerpl.Com - UT 0323-AU22-UVI 3152/49911 SMOK H 2 07:46:33.40 22.990 00:22:00 Yes
41 Blue Sierra - NE 0018-AU22-GGRO DC H 1 07:46:39.10 22.961 00:22:06 Yes
42 Golden Knights Loft - CA 17452-AU22-ARPU BC H 2 07:46:40.20 22.956 00:22:07 Yes
43 Bieche Lofts - CA 2004-AU22-BIE BB H 1 07:46:43.00 22.942 00:22:10 Yes
44 Skychargers - CA 0164-AU22-CORO BCPD H 1 07:46:44.30 22.935 00:22:11 Yes
45 Riedel's L T L - WI 0120-AU22-RIED BB H 1 07:46:44.90 22.932 00:22:12 Yes
46 Laszlo Zugor - CA 2102-AU22-CDR BB H 1 07:46:45.80 22.928 00:22:12 Yes
47 John & Omelio - NM 22164-AU22-NMRP BB H 2 07:46:46.80 22.923 00:22:13 Yes
48 Endo/Wong/Kojiro - HI 0002-AU22-PONO BB H 3 07:46:54.50 22.884 00:22:21 Yes
49 Dan & Greg Coury - AZ 0112-AU22-AONE BC C 2 07:46:55.50 22.879 00:22:22 Yes
50 Jay Page - CA 4022-AU22-FSC BB H 1 07:46:58.30 22.866 00:22:25 Yes
51 Ryan Austin - CA 39920-AU22-JEDD BBPD H 1 07:46:59.50 22.860 00:22:26 Yes
52 Kern Flyers - CA 0012-AU22-BAK PIED H 1 07:47:00.40 22.855 00:22:27 Yes
53 Griffin Loft - ID 22200-AU22-RMR BC H 1 07:47:14.60 22.785 00:22:41 Yes
54 Rob Wilson - CA 0341-AU22-AVC BBSP H 1 07:47:20.10 22.758 00:22:47 Yes
55 Erwin Racing Loft - CA 0413-AU22-BON DCSP H 1 07:47:25.00 22.734 00:22:52 Yes
56 Bluesky Loft - ON 1605-CU22-YRI BC H 1 07:47:26.90 22.725 00:22:54 Yes
57 Pigeon Party - CA 0078-AU22-BSHP GRIZ H 1 07:47:33.40 22.693 00:23:00 Yes
58 Ruybal Family Loft - CO 2257-AU22-RUYB BB H 1 07:47:37.00 22.676 00:23:04 Yes
59 Griffin Loft - ID 22203-AU22-RMR BB H 2 07:47:37.60 22.673 00:23:04 Yes
60 Denis Eastwood - CA 39914-AU22-JEDD BBPD H 2 07:47:40.60 22.658 00:23:07 Yes
61 G.S.P Loft - CA 0056-AU22-SHEL PIED H 1 07:47:44.70 22.638 00:23:11 Yes
62 Fleet Washington - DC 2234-AU22-FLTW BB H 2 07:47:47.80 22.623 00:23:15 Yes
63 Goshentown Lofts - TN 11304-AU22-NASH BB H 1 07:47:48.80 22.618 00:23:16 Yes
64 Watson & Williams - NV 14009-AU22-JEDD BC H 1 07:47:50.10 22.612 00:23:17 Yes
65 A P C Loft - TX 22039-AU22-APC BB H 1 07:47:54.80 22.589 00:23:22 Yes
66 Golden Knights Loft - CA 17448-AU22-ARPU BBWF H 3 07:48:00.40 22.562 00:23:27 Yes
67 R & D Racing 2 - ON 18914-AU22-JEDD BB H 1 07:48:01.20 22.558 00:23:28 Yes
68 Ruybal Family Loft - CO 2283-AU22-RUYB BB H 2 07:48:08.00 22.526 00:23:35 Yes
69 B S Lofts - CA 0226-AU22-BSL 13316&13326-2 BBSP H 2 07:48:13.00 22.502 00:23:40 Yes
70 Kereru Whare - CA 0128-AU22-BISH DC H 4 07:48:14.00 22.497 00:23:41 Yes
71 RCManaois Family Loft - NV 22096-AU22-SNV BKWF H 2 07:48:17.40 22.481 00:23:44 Yes
72 PNWC - ID 2129-AU22-PNWC “PAIR 3” DCWF H 1 07:48:36.80 22.388 00:24:04 Yes
73 Blue Sierra - NE 0186-AU22-SR BBSP H 2 07:48:40.70 22.370 00:24:07 Yes
74 Kern Flyers - CA 2076-AU22-JEDD PIED H 2 07:48:45.00 22.349 00:24:12 Yes
75 Stark Loft - CA 71222-AU22-ARPU MLY H 1 07:48:46.40 22.343 00:24:13 Yes
76 Sierraminis - CA 1065-AU22-SR BC H 1 07:49:00.70 22.275 00:24:27 Yes
77 D B Loft - CA 0514-AU22-JEDD WINTER RAIN BB H 1 07:49:02.10 22.269 00:24:29 Yes
78 Bieche Lofts - CA 2009-AU22-BIE RC H 2 07:49:03.20 22.263 00:24:30 Yes
79 Jim Lauritzen - CA 0639-AU22-EAV BB H 1 07:49:09.80 22.233 00:24:36 Yes
80 Racing Pigeon Mall - WA 0262-AU22-RPM DC H 2 07:49:13.80 22.214 00:24:40 Yes
81 Goshentown Lofts - TN 11301-AU22-NASH BB H 2 07:49:21.50 22.178 00:24:48 Yes
82 Spoiled Sa Amo - CA 0002-AU22-POP BB H 1 07:49:29.10 22.143 00:24:56 Yes
83 G & J Lofts - CA 0146-AU22-GJ Necco BBWF H 1 07:49:30.70 22.135 00:24:57 Yes
84 Refried Dreams - AZ 103842-AU22-ARPU SLT H 1 07:49:36.10 22.110 00:25:03 Yes
85 Sparks Trio Syn - NV 2312-AU22-RENO Kayla BBWF H 3 07:49:37.10 22.105 00:25:04 Yes
86 RCManaois Family Loft - NV 0010-AU22-RCML BC H 3 07:49:42.00 22.083 00:25:09 Yes
87 A P C Loft - TX 22329-AU22-APC BBSP H 2 07:49:45.00 22.069 00:25:12 Yes
88 Tim Brandon - CA 22101-AU22-SNV BB H 2 07:49:48.90 22.051 00:25:16 Yes
89 Jacks Loft - NV 19534-AU22-JEDD BC H 1 07:49:50.00 22.046 00:25:17 Yes
90 Choymagno Loft - CA 0469-AU22-CNA BCWF H 1 07:50:03.70 21.983 00:25:30 Yes
91 Racing Pigeon Mall - WA 0213-AU22-RPM BB H 3 07:50:05.70 21.974 00:25:32 Yes
92 T R P Loft - CA 20908-AU22-MAN First Pick BBPD H 1 07:50:13.90 21.936 00:25:41 Yes
93 Ruybal Family Loft - CO 2265-AU22-RUYB BBWF H 3 07:50:42.90 21.805 00:26:10 Yes
94 Scm Lofts - CA 19538-AU22-JEDD BCSP H 2 07:50:47.20 21.786 00:26:14 Yes
95 Sierraminis - CA 1063-AU22-SR DC H 2 07:50:48.80 21.779 00:26:15 Yes
96 Sierraminis - CA 0106-AU22-SR BBWF H 3 07:50:50.70 21.770 00:26:17 Yes
97 B S Lofts - CA 0215-AU22-BSL 237&926-2 BB H 3 07:50:59.90 21.729 00:26:27 Yes
98 Ryan Austin - CA 39915-AU22-JEDD BB H 2 07:51:08.00 21.693 00:26:35 Yes
99 Christopher Loft - UT 0022-AU22-GS BB H 2 07:51:31.90 21.587 00:26:59 Yes
100 Genesis Syndicate Loft - AZ 0662-AU22-GENS BC H 4 07:51:47.20 21.519 00:27:14 Yes

There are 337 bird records

Note: These Race Results are unofficial and subject to change until verified by the Race Committee and declared final.